Location: Kernascl�den
(48.0062°N, 3.3198°W)
Time: 08:20:43
(UTC+00:00)

Cosmos 1689 Rocket - Visible Passes

Search period start: 11 May 2021 00:00
Search period end: 21 May 2021 00:00
Orbit: 346 x 360 km, 97.5° (Epoch: 10 May)

Date Brightness Start Highest point End Pass type
(mag) Time Alt. Az. Time Alt. Az. Time Alt. Az.
12 May 5.4 20:33:55 10° NNW 20:35:23 14° WNW 20:36:53 10° W visible
15 May 5.1 20:21:18 10° NNW 20:23:24 19° WNW 20:25:29 10° WSW visible
19 May 5.4 20:35:33 10° NNW 20:37:05 14° WNW 20:38:38 10° W visible
